Погода в Махачкале

Погода в Махачкале : погода сейчас, прогноз погоды и архив. Всё, что Вы хотите узнать о погоде в Махачкале!

Поиск расширенной информации на нашем сайте:

Другие новости

Новости СМИ2

Главная страница сайта

Новости сайта

02.10.2013

Напоминаем, что на нашем новом сайте вы можете получить высокодетализированные прогнозы погоды по пунктам России, СНГ и мира (включающие важные для авиации метеовеличины, такие как направление и скорость ветра, видимость, явления погоды, количество и форма облачности, нижняя и верхняя граница облачности), а также ознакомиться с разнообразными материалами по авиационной метеорологии и подборкой полезных ссылок на эту тему.

Сайт Метеоцентр.Азия посвящён разработке технологий оптимизации авиаметеорологического обслуживания, включая проектирование и перспективное создание нескольких автоматизированных авиаметеорологических систем:
- система выпуска высокодетальных прогностических карт явлений погоды для нижнего воздушного пространства по России и ближнему зарубежью;
- система верификации прогнозов TAF (выпускаемых синоптиками официальных АМСГ РФ и ближнего зарубежья) и AUTOTAF (выпускаемых сайтом Метеоцентр.Азия) - выявление ошибок, онлайн-сопоставление с фактической погодой METAR, автоматическое внесение коррективов в прогнозы при резком отклонении фактической погоды от прогноза, подсчёт оправдываемости прогнозов по элементам и в целом;
- система обработки, анализа и отображения авиаметеорологической информации для применения провайдерами метеорологической информации.

Рекомендуем: Люстра хрустальная интернет.

Погода в Махачкале - сегодня

Время (UTC), дата Ветер
(°,м/с) 
Видим.   Явления Облачность Т
(°С)
Тd
(°С)
f(%) Тe
(°С)
Pmin
(гПа)
dP
(гПа)
Po
(мм)
O2
(г/м3)
Тmin Tmax R s Состояние
почвы
18 25.05.17 270 (З) 20000 м    10/8 600 м средняя 
[Sc|Ac As]
+17.1 +9 59 +18  1018.5  0.7  765  289           
21 25.05.17 270 (З) 20000 м    10/3 600 м средняя 
[Sc|Ac As]
+15.2 +9 66 +16  1017.8  -0.6  765  290           
00 26.05.17 270 (З) 20000 м    3/0 средняя, верхняя 
[Ac As|Ci fib]
+13.3 +8.9 75 +14  1018  0.2  765  292           
03 26.05.17 260 (З) 20000 м    ясно 
+15.7 +9.9 68 +17  1017.9  0.1  765  290  +12.7        сухая 
06 26.05.17 320 (СЗ) 20000 м    ясно 
+19.7 +8.5 48 +21  1017.7  -0.3  765  286           
09 26.05.17 090 (В) 20000 м    4/0 средняя, верхняя 
[Ac cast|Ci fib]
+20.7 +12.1 58 +24  1017.1  -0.6  764  284           
12 26.05.17 110 (В) 20000 м    8/0 верхняя 
[Ci fib]
+19.7 +12 61 +25  1015.9  -1.1  764  285           
15 26.05.17 120 (ЮВ) н/о    н/о 
+18.1 +12.5 70 +22  1014.9  -1  763  286    +21.3       
18 26.05.17 130 (ЮВ) 20000 м    6/0 средняя, верхняя 
[Ac cast|Ci fib]
+17.4 +11.8 70 +21  1015.3  0.4  763  287           
21 26.05.17 140 (ЮВ) н/о    н/о 
+16.5 +12 75 +21  1013.7  -1.6  762  287           
00 27.05.17 320 (СЗ) 20000 м    8/3 600 м средняя, верхняя 
[Sc diur, vesp|Ac As|Ci fib]
+12.3 +10.3 88 +15  1013.1  -0.5  761  292           
03 27.05.17 тихо ()   20000 м    4/0 верхняя 
[Ci fib]
+15.4 +11.5 78 +18  1013.4  0.3  762  288  +12.3        сухая 
06 27.05.17 100 (В) 20000 м    8/0 средняя, верхняя 
[Ac cast|Ci fib]
+19.1 +13.5 70 +25  1013.4  0.1  762  284           
09 27.05.17 100 (В) 20000 м    8/0 средняя, верхняя 
[Ac cast|Ci fib]
+18.9 +13.9 73 +25  1012.6  -0.7  761  284           
12 27.05.17 100 (В) 20000 м    9/4 600 м средняя, верхняя 
[Sc diur, vesp|Ac cast|Ci fib]
+17.7 +13.5 76 +24  1011.4  -1.2  760  285           
18 27.05.17 170 (Ю) 10 км  слаб. ливневой дождь{гроза}  10/10 600 м кучево-дожд. 
[Cb cap]
+15.7 +12.9 83 +22  1012.2  -0.3  761  287           
21 27.05.17 100 (В) 10 км  {ливн. осадки}  10/8 600 м средняя 
[Sc diur, vesp|Ac As]
+16.3 +12.3 77 +22  1011.9  -0.3  761  287           
03 28.05.17 270 (З) 20000 м    8/0 верхняя 
[Ci fib]
+16.6 +13.1 80 +22  1013.1  0.6  761  287  +12    0.3    влажная 
06 28.05.17 300 (СЗ) 20000 м    6/0 средняя, верхняя 
[Ac trans|Ci fib]
+23.2 +12.1 50 +27  1012.7  -0.4  761  280           
09 28.05.17 080 (В) 20000 м    9/4 600 м кучево-дожд., средняя, верхняя 
[Cb calv|Ac trans|Ci fib]
+21 +15.8 72 +31  1012.9  0.2  761  281           
12 28.05.17 120 (ЮВ) 20000 м    8/3 600 м кучево-дожд., средняя, верхняя 
[Cb calv|Ac trans|Ci fib]
+20.6 +15.2 71 +29  1012.6  -0.4  761  282           
18 28.05.17 270 (З) 4000 м  дымка  8/3 600 м кучево-дожд., средняя, верхняя 
[Cb calv|Ac trans|Ci fib]
+18.9 +12.9 68 +24  1016.1  2.6  764  285           
21 28.05.17 280 (З) 10 км    8/0 средняя, верхняя 
[Ac trans|Ci fib]
+18.9 +11.3 61 +23  1015.7  -0.4  763  286           
00 29.05.17 290 (З) 20000 м    4/0 верхняя 
[Ci fib]
+15.8 +11 73 +18  1016.7  764  289           
03 29.05.17 300 (СЗ) 6-10{10}  20000 м    4/0 средняя, верхняя 
[Ac trans|Ci fib]
+19.4 +11.4 60 +23  1018.3  1.6  765  286  +15.5        сухая 
Время (UTC), дата Ветер
(°,м/с) 
Видим.   Явления Облачность Т
(°С)
Тd
(°С)
f(%) Тe
(°С)
Pmin
(гПа)
dP
(гПа)
Po
(мм)
O2
(г/м3)
Тmin Tmax R s Состояние
почвы

Для получения пояснительной информации подведите курсор к названию столбца.

ПОГОДА в Махачкале - архив

Всё, что Вы хотите узнать о погоде в Махачкале - удобно и подробно!

Выберите нужную дату (начиная с 1 января 2015* года) и нажмите кнопку "Найти".
Будут отображены архивные сводки погоды по пункту Махачкала, начиная с указанной даты.


Отображать данные в формате CSV (для использования в таблицах Excel)


Внимание! Наш архив погоды предназначен исключительно для личного некоммерческого использования в познавательных целях. Если Вам необходимы официальные справки о состоянии погоды (для производственных, юридических, коммерческих и т.п. целей), обращайтесь в органы Росгидромета.

*Примечание: данная дата относится к архиву по метеостанциям СССР (Россия, СНГ, Балтия).
Архив по метеостанциям Зарубежной Европы и Азии (кроме Китая) хранится 10 дней, по другим регионам земного шара (Китай, Африка, Америка, Австралия, Океания) - 1 день.

Махачкала - район местоположения метеостанции


Название, широта, долгота, высота метеостанции:
Махачкала 42.8°ш. 47.6°д. 32 м над ур. моря [Российская Федерация]

Дополнительная информация

В oтличие oт бoльшинства пoгoдных сайтoв мы публикуем пoдрoбную метеoинфoрмацию в детальнoм прoфессиoнальнoм фoрмате.

Характеристики температуры и влажнoсти вoздуха измеряются на высoте 2 м в тени вдали oт зданий и деревьев.
Скoрoсть ветра измеряется на высoте 10 м (на урoвне рoста челoвека скoрoсть ветра ниже в 1.5-2 раза). Если метеoстанция нахoдится в гoрoде или в лесу, тo скoрoсть ветра занижена на 2-4 м/с пo сравнению с oткрытым местoм. Скoрoсть ветра над акватoриями крупных рек и oзёр, а также на вершинах хoлмoв на 2-5 м/с выше, чем в oбычных услoвиях.
Атмoсфернoе давление в разных тoчках местнoсти мoжет значительнo oтличаться oт давления на метеoстанции, в зависимoсти oт услoвий рельефа (при пoдъёме на 10 м давление пoнижается примернo на 1 мм рт.ст.).